| time (UTC) | temp F | wind direction | speed knots | gust knots | rain 1hr in | rain 24hr in | rain mn in | humidity % | barometer mb |
| 20260505101058 | 55 | 212 | 2.6 | 7.0 | 0.00 | 0.00 | 0.00 | 71 | 1012.2 |
| 20260505100558 | 55 | 222 | 0.9 | 7.0 | 0.00 | 0.00 | 0.00 | 71 | 1012.2 |
| 20260505100056 | 55 | 131 | 0.9 | 7.8 | 0.00 | 0.00 | 0.00 | 70 | 1012.2 |
| 20260505095556 | 55 | 208 | 0.9 | 7.8 | 0.00 | 0.00 | 0.00 | 70 | 1012.1 |
| 20260505095055 | 55 | 232 | 2.6 | 7.8 | 0.00 | 0.00 | 0.00 | 70 | 1012.1 |
| 20260505094556 | 55 | 212 | 1.7 | 7.8 | 0.00 | 0.00 | 0.00 | 70 | 1012.0 |
| 20260505094055 | 55 | 162 | 0.9 | 5.2 | 0.00 | 0.00 | 0.00 | 70 | 1012.0 |
| 20260505093555 | 55 | 149 | 0.9 | 5.2 | 0.00 | 0.00 | 0.00 | 70 | 1012.0 |
| 20260505093101 | 55 | 91 | 0.9 | 7.0 | 0.00 | 0.00 | 0.00 | 69 | 1012.0 |
| 20260505092556 | 55 | 141 | 0.9 | 7.0 | 0.00 | 0.00 | 0.00 | 69 | 1012.0 |
| 20260505092056 | 55 | 165 | 1.7 | 6.1 | 0.00 | 0.00 | 0.00 | 69 | 1012.0 |
| 20260505091607 | 55 | 208 | 0.9 | 9.6 | 0.00 | 0.00 | 0.00 | 69 | 1011.9 |
| 20260505091059 | 55 | 228 | 1.7 | 9.6 | 0.00 | 0.00 | 0.00 | 68 | 1012.0 |
| 20260505090559 | 55 | 202 | 2.6 | 9.6 | 0.00 | 0.00 | 0.00 | 69 | 1012.0 |
| 20260505090057 | 55 | 101 | 1.7 | 7.8 | 0.00 | 0.00 | 0.00 | 68 | 1011.9 |
| 20260505085559 | 55 | 242 | 1.7 | 7.0 | 0.00 | 0.00 | 0.00 | 68 | 1011.9 |
| 20260505085056 | 55 | 179 | 0.9 | 6.1 | 0.00 | 0.00 | 0.00 | 68 | 1011.9 |
| 20260505084557 | 55 | 165 | 0.9 | 4.3 | 0.00 | 0.00 | 0.00 | 68 | 1011.9 |
| 20260505084100 | 56 | 133 | 0.9 | 4.3 | 0.00 | 0.00 | 0.00 | 68 | 1011.8 |
| 20260505083558 | 56 | 127 | 0.9 | 2.6 | 0.00 | 0.00 | 0.00 | 67 | 1011.9 |
| 20260505083102 | 56 | 156 | 0.9 | 10.4 | 0.00 | 0.00 | 0.00 | 67 | 1011.9 |
| 20260505082555 | 56 | 155 | 1.7 | 10.4 | 0.00 | 0.00 | 0.00 | 66 | 1011.8 |
| 20260505082059 | 56 | 240 | 1.7 | 7.0 | 0.00 | 0.00 | 0.00 | 66 | 1011.9 |
| 20260505081605 | 56 | 143 | 0.9 | 5.2 | 0.00 | 0.00 | 0.00 | 65 | 1011.9 |
| 20260505081057 | 56 | 176 | 1.7 | 4.3 | 0.00 | 0.00 | 0.00 | 65 | 1011.9 |
| 20260505080558 | 56 | 232 | 0.9 | 4.3 | 0.00 | 0.00 | 0.00 | 65 | 1011.9 |
| 20260505080058 | 56 | 139 | 0.9 | 3.5 | 0.00 | 0.00 | 0.00 | 64 | 1011.9 |
| 20260505075601 | 56 | 126 | 0.9 | 3.5 | 0.00 | 0.00 | 0.00 | 64 | 1011.8 |
| 20260505075055 | 57 | 164 | 0.9 | 3.5 | 0.00 | 0.00 | 0.00 | 63 | 1011.8 |
| 20260505074556 | 57 | 270 | 0.0 | 2.6 | 0.00 | 0.00 | 0.00 | 63 | 1011.8 |
| 20260505074056 | 57 | 153 | 0.9 | 2.6 | 0.00 | 0.00 | 0.00 | 62 | 1011.8 |
| 20260505073555 | 57 | 151 | 0.9 | 2.6 | 0.00 | 0.00 | 0.00 | 61 | 1011.8 |
| 20260505073126 | 57 | 161 | 0.9 | 3.5 | 0.00 | 0.00 | 0.00 | 60 | 1011.8 |
| 20260505072555 | 57 | 205 | 0.9 | 3.5 | 0.00 | 0.00 | 0.00 | 60 | 1011.8 |
| 20260505072101 | 58 | 232 | 0.9 | 3.5 | 0.00 | 0.00 | 0.00 | 59 | 1011.8 |
| 20260505071604 | 58 | 233 | 0.9 | 3.5 | 0.00 | 0.00 | 0.00 | 58 | 1011.7 |
| 20260505071101 | 58 | 240 | 0.0 | 3.5 | 0.00 | 0.00 | 0.00 | 57 | 1011.6 |
| 20260505070600 | 58 | 141 | 1.7 | 3.5 | 0.00 | 0.00 | 0.00 | 56 | 1011.6 |
| 20260505070104 | 58 | 203 | 0.0 | 3.5 | 0.00 | 0.00 | 0.00 | 55 | 1011.5 |
| 20260505065603 | 59 | 207 | 0.9 | 5.2 | 0.00 | 0.00 | 0.00 | 56 | 1011.5 |
| 20260505065100 | 59 | 209 | 1.7 | 7.0 | 0.00 | 0.00 | 0.00 | 55 | 1011.5 |
| 20260505064558 | 59 | 230 | 0.9 | 7.0 | 0.00 | 0.00 | 0.00 | 54 | 1011.4 |
| 20260505064059 | 59 | 220 | 1.7 | 7.0 | 0.00 | 0.00 | 0.00 | 53 | 1011.4 |
| 20260505063559 | 60 | 238 | 0.9 | 4.3 | 0.00 | 0.00 | 0.00 | 52 | 1011.5 |
| 20260505063056 | 60 | 211 | 1.7 | 4.3 | 0.00 | 0.00 | 0.00 | 52 | 1011.4 |
| 20260505062602 | 60 | 232 | 0.9 | 4.3 | 0.00 | 0.00 | 0.00 | 52 | 1011.4 |
| 20260505062100 | 60 | 215 | 0.9 | 4.3 | 0.00 | 0.00 | 0.00 | 51 | 1011.4 |
| 20260505061558 | 60 | 181 | 1.7 | 6.1 | 0.00 | 0.00 | 0.00 | 52 | 1011.5 |
| 20260505061059 | 60 | 214 | 0.9 | 6.1 | 0.00 | 0.00 | 0.00 | 51 | 1011.4 |
| 20260505060559 | 61 | 239 | 0.9 | 3.5 | 0.00 | 0.00 | 0.00 | 50 | 1011.5 |
| 20260505060059 | 61 | 218 | 0.9 | 4.3 | 0.00 | 0.00 | 0.00 | 49 | 1011.4 |
| 20260505055603 | 61 | 247 | 1.7 | 4.3 | 0.00 | 0.00 | 0.00 | 49 | 1011.4 |
| 20260505055059 | 61 | 224 | 0.9 | 3.5 | 0.00 | 0.00 | 0.00 | 49 | 1011.4 |
| 20260505054559 | 61 | 214 | 0.9 | 4.3 | 0.00 | 0.00 | 0.00 | 48 | 1011.4 |
| 20260505054102 | 62 | 0 | 0.9 | 5.2 | 0.00 | 0.00 | 0.00 | 48 | 1011.3 |
| 20260505053559 | 62 | 222 | 1.7 | 5.2 | 0.00 | 0.00 | 0.00 | 47 | 1011.4 |
| 20260505053057 | 62 | 206 | 0.9 | 6.1 | 0.00 | 0.00 | 0.00 | 47 | 1011.4 |
| 20260505052558 | 62 | 228 | 1.7 | 6.1 | 0.00 | 0.00 | 0.00 | 47 | 1011.4 |
| 20260505052059 | 62 | 230 | 0.9 | 10.4 | 0.00 | 0.00 | 0.00 | 48 | 1011.4 |
| 20260505051606 | 62 | 151 | 0.9 | 10.4 | 0.00 | 0.00 | 0.00 | 47 | 1011.4 |
| 20260505051100 | 62 | 251 | 2.6 | 10.4 | 0.00 | 0.00 | 0.00 | 47 | 1011.3 |
| 20260505050558 | 62 | 0 | 0.9 | 7.8 | 0.00 | 0.00 | 0.00 | 46 | 1011.3 |
| 20260505050106 | 62 | 217 | 0.9 | 7.8 | 0.00 | 0.00 | 0.00 | 47 | 1011.4 |
| 20260505041603 | 64 | 130 | 2.6 | 10.4 | 0.00 | 0.00 | 0.00 | 44 | 1011.1 |
| 20260505041058 | 64 | 232 | 2.6 | 10.4 | 0.00 | 0.00 | 0.00 | 44 | 1011.0 |
| 20260505040558 | 64 | 158 | 1.7 | 8.7 | 0.00 | 0.00 | 0.00 | 44 | 1010.9 |
| 20260505040056 | 64 | 236 | 2.6 | 7.8 | 0.00 | 0.00 | 0.00 | 44 | 1010.9 |
| 20260505035559 | 64 | 222 | 0.9 | 10.4 | 0.00 | 0.00 | 0.00 | 44 | 1010.8 |
| 20260505035101 | 65 | 252 | 0.9 | 10.4 | 0.00 | 0.00 | 0.00 | 44 | 1010.7 |
| 20260505034557 | 65 | 124 | 2.6 | 7.8 | 0.00 | 0.00 | 0.00 | 43 | 1010.6 |
| 20260505034058 | 65 | 241 | 1.7 | 10.4 | 0.00 | 0.00 | 0.00 | 43 | 1010.6 |
| 20260505033559 | 65 | 247 | 1.7 | 10.4 | 0.00 | 0.00 | 0.00 | 43 | 1010.5 |
| 20260505033056 | 65 | 230 | 1.7 | 8.7 | 0.00 | 0.00 | 0.00 | 42 | 1010.4 |
| 20260505032559 | 65 | 220 | 1.7 | 8.7 | 0.00 | 0.00 | 0.00 | 42 | 1010.4 |
| 20260505032058 | 65 | 233 | 1.7 | 7.8 | 0.00 | 0.00 | 0.00 | 42 | 1010.4 |
| 20260505031557 | 66 | 133 | 1.7 | 12.2 | 0.00 | 0.00 | 0.00 | 42 | 1010.3 |
| 20260505031058 | 66 | 227 | 1.7 | 12.2 | 0.00 | 0.00 | 0.00 | 43 | 1010.3 |
| 20260505030558 | 66 | 260 | 1.7 | 7.0 | 0.00 | 0.00 | 0.00 | 43 | 1010.2 |
| 20260505030058 | 66 | 135 | 1.7 | 9.6 | 0.00 | 0.00 | 0.00 | 43 | 1010.2 |
| 20260505025559 | 67 | 162 | 1.7 | 9.6 | 0.00 | 0.00 | 0.00 | 42 | 1010.1 |
| 20260505025059 | 67 | 173 | 1.7 | 7.8 | 0.00 | 0.00 | 0.00 | 42 | 1010.1 |
| 20260505024604 | 67 | 166 | 0.9 | 9.6 | 0.00 | 0.00 | 0.00 | 42 | 1010.0 |
| 20260505024058 | 67 | 162 | 1.7 | 9.6 | 0.00 | 0.00 | 0.00 | 41 | 1010.0 |
| 20260505023558 | 68 | 174 | 1.7 | 8.7 | 0.00 | 0.00 | 0.00 | 41 | 1010.0 |
| 20260505023056 | 68 | 123 | 2.6 | 9.6 | 0.00 | 0.00 | 0.00 | 40 | 1009.9 |
| 20260505022559 | 68 | 226 | 1.7 | 9.6 | 0.00 | 0.00 | 0.00 | 41 | 1010.0 |
| 20260505022059 | 68 | 0 | 2.6 | 9.6 | 0.00 | 0.00 | 0.00 | 41 | 1010.0 |
| 20260505021558 | 69 | 160 | 2.6 | 10.4 | 0.00 | 0.00 | 0.00 | 40 | 1010.0 |
| 20260505021058 | 69 | 162 | 1.7 | 12.2 | 0.00 | 0.00 | 0.00 | 40 | 1010.0 |
| 20260505020558 | 69 | 108 | 2.6 | 12.2 | 0.00 | 0.00 | 0.00 | 40 | 1010.0 |
| 20260505020059 | 69 | 150 | 2.6 | 12.2 | 0.00 | 0.00 | 0.00 | 39 | 1009.9 |
| 20260505015559 | 69 | 332 | 1.7 | 7.8 | 0.00 | 0.00 | 0.00 | 39 | 1010.0 |
| 20260505015101 | 70 | 126 | 1.7 | 7.8 | 0.00 | 0.00 | 0.00 | 39 | 1010.0 |
| 20260505014606 | 70 | 220 | 0.9 | 13.9 | 0.00 | 0.00 | 0.00 | 39 | 1010.0 |
| 20260505014102 | 70 | 217 | 3.5 | 13.9 | 0.00 | 0.00 | 0.00 | 38 | 1009.9 |
| 20260505013558 | 71 | 232 | 1.7 | 8.7 | 0.00 | 0.00 | 0.00 | 37 | 1010.0 |
| 20260505013121 | 71 | 151 | 3.5 | 8.7 | 0.00 | 0.00 | 0.00 | 37 | 1009.9 |
| 20260505012558 | 72 | 169 | 2.6 | 7.8 | 0.00 | 0.00 | 0.00 | 37 | 1009.9 |
| 20260505012100 | 72 | 190 | 1.7 | 7.8 | 0.00 | 0.00 | 0.00 | 37 | 1010.0 |
| 20260505011628 | 72 | 112 | 1.7 | 11.3 | 0.00 | 0.00 | 0.00 | 37 | 1010.0 |
| 20260505011058 | 72 | 251 | 2.6 | 11.3 | 0.00 | 0.00 | 0.00 | 35 | 1010.0 |
| 20260505010601 | 73 | 109 | 3.5 | 10.4 | 0.00 | 0.00 | 0.00 | 36 | 1010.0 |
| 20260505010115 | 73 | 166 | 2.6 | 11.3 | 0.00 | 0.00 | 0.00 | 36 | 1009.9 |
| 20260505005559 | 73 | 221 | 1.7 | 11.3 | 0.00 | 0.00 | 0.00 | 36 | 1010.0 |
| 20260505005059 | 74 | 183 | 1.7 | 8.7 | 0.00 | 0.00 | 0.00 | 36 | 1010.0 |
| 20260505004558 | 74 | 275 | 2.6 | 7.8 | 0.00 | 0.00 | 0.00 | 35 | 1010.0 |
| 20260505004058 | 74 | 280 | 0.9 | 7.8 | 0.00 | 0.00 | 0.00 | 35 | 1009.9 |
| 20260505003601 | 74 | 196 | 2.6 | 10.4 | 0.00 | 0.00 | 0.00 | 35 | 1010.0 |
| 20260505003104 | 74 | 253 | 3.5 | 10.4 | 0.00 | 0.00 | 0.00 | 34 | 1009.9 |
| 20260505002558 | 75 | 218 | 4.3 | 10.4 | 0.00 | 0.00 | 0.00 | 33 | 1009.9 |
| 20260505002058 | 75 | 205 | 0.9 | 11.3 | 0.00 | 0.00 | 0.00 | 34 | 1009.9 |
| 20260505001604 | 75 | 162 | 1.7 | 11.3 | 0.00 | 0.00 | 0.00 | 34 | 1009.9 |
| 20260505001058 | 76 | 217 | 1.7 | 10.4 | 0.00 | 0.00 | 0.00 | 33 | 1009.9 |
| 20260505000559 | 75 | 240 | 3.5 | 10.4 | 0.00 | 0.00 | 0.00 | 32 | 1009.8 |
| 20260505000106 | 76 | 153 | 2.6 | 11.3 | 0.00 | 0.00 | 0.00 | 32 | 1009.8 |
| 20260504235559 | 76 | 199 | 2.6 | 11.3 | 0.00 | 0.00 | 0.00 | 31 | 1009.9 |
| 20260504235102 | 76 | 193 | 2.6 | 10.4 | 0.00 | 0.00 | 0.00 | 31 | 1009.8 |
| 20260504234556 | 76 | 322 | 3.5 | 11.3 | 0.00 | 0.00 | 0.00 | 31 | 1009.8 |
| 20260504234102 | 76 | 205 | 3.5 | 12.2 | 0.00 | 0.00 | 0.00 | 31 | 1009.8 |
| 20260504233558 | 76 | 214 | 3.5 | 12.2 | 0.00 | 0.00 | 0.00 | 30 | 1009.8 |
| 20260504233108 | 77 | 226 | 4.3 | 12.2 | 0.00 | 0.00 | 0.00 | 30 | 1009.7 |
| 20260504232559 | 78 | 147 | 1.7 | 9.6 | 0.00 | 0.00 | 0.00 | 30 | 1009.7 |
| 20260504232058 | 78 | 227 | 2.6 | 9.6 | 0.00 | 0.00 | 0.00 | 29 | 1009.8 |
| 20260504231557 | 79 | 205 | 4.3 | 11.3 | 0.00 | 0.00 | 0.00 | 26 | 1009.7 |
| 20260504231058 | 79 | 206 | 1.7 | 12.2 | 0.00 | 0.00 | 0.00 | 28 | 1009.7 |
| 20260504230601 | 78 | 260 | 4.3 | 12.2 | 0.00 | 0.00 | 0.00 | 28 | 1009.7 |
| 20260504225559 | 79 | 263 | 1.7 | 5.2 | 0.00 | 0.00 | 0.00 | 27 | 1009.7 |
| 20260504225059 | 79 | 314 | 1.7 | 7.0 | 0.00 | 0.00 | 0.00 | 28 | 1009.7 |
| 20260504224558 | 79 | 256 | 1.7 | 8.7 | 0.00 | 0.00 | 0.00 | 28 | 1009.8 |
| 20260504224059 | 80 | 203 | 2.6 | 8.7 | 0.00 | 0.00 | 0.00 | 27 | 1009.9 |
| 20260504223559 | 80 | 245 | 3.5 | 8.7 | 0.00 | 0.00 | 0.00 | 27 | 1009.9 |
| 20260504223102 | 79 | 204 | 2.6 | 7.8 | 0.00 | 0.00 | 0.00 | 28 | 1009.8 |
| 20260504222601 | 80 | 224 | 1.7 | 7.8 | 0.00 | 0.00 | 0.00 | 28 | 1009.9 |
| 20260504222058 | 80 | 212 | 1.7 | 10.4 | 0.00 | 0.00 | 0.00 | 29 | 1009.9 |
| 20260504221603 | 79 | 322 | 2.6 | 10.4 | 0.00 | 0.00 | 0.00 | 27 | 1009.9 |
| 20260504221058 | 80 | 252 | 3.5 | 10.4 | 0.00 | 0.00 | 0.00 | 28 | 1010.0 |
| 20260504220558 | 79 | 210 | 2.6 | 10.4 | 0.00 | 0.00 | 0.00 | 27 | 1010.0 |
| 20260504220100 | 80 | 293 | 3.5 | 11.3 | 0.00 | 0.00 | 0.00 | 27 | 1010.0 |
| 20260504215559 | 80 | 230 | 3.5 | 11.3 | 0.00 | 0.00 | 0.00 | 26 | 1010.1 |
| 20260504215058 | 79 | 250 | 2.6 | 13.0 | 0.00 | 0.00 | 0.00 | 27 | 1010.1 |
| 20260504214614 | 80 | 201 | 3.5 | 13.0 | 0.00 | 0.00 | 0.00 | 27 | 1010.1 |
| 20260504214058 | 80 | 303 | 1.7 | 11.3 | 0.00 | 0.00 | 0.00 | 28 | 1010.1 |
| 20260504213558 | 79 | 216 | 2.6 | 9.6 | 0.00 | 0.00 | 0.00 | 29 | 1010.2 |
| 20260504213116 | 80 | 307 | 2.6 | 11.3 | 0.00 | 0.00 | 0.00 | 28 | 1010.3 |
| 20260504212559 | 80 | 327 | 2.6 | 11.3 | 0.00 | 0.00 | 0.00 | 28 | 1010.2 |
| 20260504212100 | 81 | 249 | 3.5 | 11.3 | 0.00 | 0.00 | 0.00 | 26 | 1010.3 |
| 20260504211556 | 81 | 250 | 3.5 | 6.1 | 0.00 | 0.00 | 0.00 | 27 | 1010.2 |
| 20260504211059 | 81 | 253 | 2.6 | 7.8 | 0.00 | 0.00 | 0.00 | 27 | 1010.2 |
| 20260504210559 | 82 | 213 | 1.7 | 7.8 | 0.00 | 0.00 | 0.00 | 26 | 1010.2 |
| 20260504205559 | 81 | 256 | 2.6 | 7.0 | 0.00 | 0.00 | 0.00 | 27 | 1010.3 |
| 20260504205058 | 81 | 242 | 2.6 | 7.0 | 0.00 | 0.00 | 0.00 | 26 | 1010.4 |
| 20260504204601 | 81 | 232 | 1.7 | 9.6 | 0.00 | 0.00 | 0.00 | 26 | 1010.4 |
| 20260504204058 | 81 | 242 | 2.6 | 9.6 | 0.00 | 0.00 | 0.00 | 28 | 1010.4 |
| 20260504203558 | 81 | 275 | 1.7 | 8.7 | 0.00 | 0.00 | 0.00 | 25 | 1010.4 |
| 20260504203106 | 81 | 256 | 2.6 | 8.7 | 0.00 | 0.00 | 0.00 | 27 | 1010.4 |
| 20260504202558 | 81 | 243 | 2.6 | 7.8 | 0.00 | 0.00 | 0.00 | 26 | 1010.4 |
| 20260504202059 | 81 | 242 | 3.5 | 7.8 | 0.00 | 0.00 | 0.00 | 27 | 1010.5 |
| 20260504201621 | 81 | 235 | 1.7 | 4.3 | 0.00 | 0.00 | 0.00 | 27 | 1010.4 |
| 20260504201058 | 81 | 248 | 0.9 | 4.3 | 0.00 | 0.00 | 0.00 | 27 | 1010.4 |
| 20260504200559 | 81 | 214 | 1.7 | 4.3 | 0.00 | 0.00 | 0.00 | 26 | 1010.5 |
| 20260504200111 | 80 | 264 | 1.7 | 7.0 | 0.00 | 0.00 | 0.00 | 28 | 1010.6 |
| 20260504195558 | 79 | 237 | 2.6 | 9.6 | 0.00 | 0.00 | 0.00 | 28 | 1010.6 |
| 20260504195059 | 79 | 193 | 1.7 | 10.4 | 0.00 | 0.00 | 0.00 | 28 | 1010.6 |
| 20260504194604 | 79 | 251 | 2.6 | 10.4 | 0.00 | 0.00 | 0.00 | 29 | 1010.6 |
| 20260504194059 | 79 | 238 | 1.7 | 10.4 | 0.00 | 0.00 | 0.00 | 29 | 1010.6 |
| 20260504193559 | 79 | 196 | 4.3 | 10.4 | 0.00 | 0.00 | 0.00 | 29 | 1010.6 |
| 20260504193113 | 79 | 228 | 1.7 | 5.2 | 0.00 | 0.00 | 0.00 | 29 | 1010.6 |
| 20260504192558 | 79 | 201 | 0.9 | 7.0 | 0.00 | 0.00 | 0.00 | 29 | 1010.7 |
| 20260504192104 | 79 | 258 | 2.6 | 8.7 | 0.00 | 0.00 | 0.00 | 28 | 1010.7 |
| 20260504191605 | 79 | 259 | 3.5 | 8.7 | 0.00 | 0.00 | 0.00 | 28 | 1010.8 |
| 20260504191055 | 79 | 248 | 0.9 | 4.3 | 0.00 | 0.00 | 0.00 | 29 | 1010.8 |
| 20260504190555 | 79 | 245 | 1.7 | 5.2 | 0.00 | 0.00 | 0.00 | 28 | 1010.8 |
| 20260504190115 | 78 | 241 | 0.9 | 5.2 | 0.00 | 0.00 | 0.00 | 30 | 1010.8 |
| 20260504185558 | 78 | 220 | 0.9 | 4.3 | 0.00 | 0.00 | 0.00 | 29 | 1010.8 |
| 20260504185059 | 78 | 226 | 0.9 | 8.7 | 0.00 | 0.00 | 0.00 | 29 | 1010.9 |
| 20260504184626 | 78 | 240 | 1.7 | 8.7 | 0.00 | 0.00 | 0.00 | 28 | 1011.0 |
| 20260504184059 | 79 | 243 | 2.6 | 7.8 | 0.00 | 0.00 | 0.00 | 28 | 1010.9 |
| 20260504183556 | 78 | 257 | 1.7 | 7.0 | 0.00 | 0.00 | 0.00 | 29 | 1010.9 |
| 20260504183056 | 78 | 233 | 1.7 | 7.0 | 0.00 | 0.00 | 0.00 | 29 | 1011.0 |
| 20260504182559 | 78 | 215 | 2.6 | 7.0 | 0.00 | 0.00 | 0.00 | 30 | 1011.0 |
| 20260504182058 | 77 | 135 | 1.7 | 9.6 | 0.00 | 0.00 | 0.00 | 31 | 1011.0 |
| 20260504181559 | 77 | 244 | 3.5 | 9.6 | 0.00 | 0.00 | 0.00 | 30 | 1011.0 |
| 20260504181056 | 77 | 246 | 1.7 | 6.1 | 0.00 | 0.00 | 0.00 | 30 | 1011.0 |
| 20260504180559 | 77 | 234 | 1.7 | 6.1 | 0.00 | 0.00 | 0.00 | 31 | 1011.0 |
| 20260504180058 | 76 | 259 | 1.7 | 6.1 | 0.00 | 0.00 | 0.00 | 31 | 1010.9 |
| 20260504175555 | 76 | 312 | 1.7 | 6.1 | 0.00 | 0.00 | 0.00 | 32 | 1011.1 |
| 20260504175055 | 76 | 264 | 0.9 | 3.5 | 0.00 | 0.00 | 0.00 | 33 | 1011.1 |
| 20260504174556 | 75 | 258 | 0.9 | 3.5 | 0.00 | 0.00 | 0.00 | 33 | 1011.0 |
| 20260504174055 | 75 | 243 | 0.9 | 4.3 | 0.00 | 0.00 | 0.00 | 32 | 1011.1 |
| 20260504173559 | 74 | 245 | 0.9 | 4.3 | 0.00 | 0.00 | 0.00 | 33 | 1011.2 |
| 20260504173058 | 73 | 221 | 1.7 | 4.3 | 0.00 | 0.00 | 0.00 | 33 | 1011.3 |
| 20260504172555 | 73 | 239 | 0.9 | 4.3 | 0.00 | 0.00 | 0.00 | 34 | 1011.3 |
| 20260504172100 | 72 | 216 | 1.7 | 3.5 | 0.00 | 0.00 | 0.00 | 34 | 1011.2 |
| 20260504171610 | 71 | 0 | 0.9 | 7.8 | 0.00 | 0.00 | 0.00 | 36 | 1011.3 |
| 20260504171056 | 71 | 207 | 0.9 | 7.8 | 0.00 | 0.00 | 0.00 | 36 | 1011.3 |
| 20260504170555 | 70 | 225 | 1.7 | 7.8 | 0.00 | 0.00 | 0.00 | 38 | 1011.3 |
| 20260504160105 | 62 | 0 | 0.9 | 2.6 | 0.00 | 0.00 | 0.00 | 55 | 1011.2 |
| 20260504151058 | 57 | 0 | 0.0 | 1.7 | 0.00 | 0.00 | 0.00 | 61 | 1011.6 |
| 20260504150558 | 56 | 0 | 0.0 | 0.9 | 0.00 | 0.00 | 0.00 | 61 | 1011.7 |
| 20260504141058 | 53 | 0 | 0.0 | 1.7 | 0.00 | 0.00 | 0.00 | 54 | 1011.5 |
| 20260504140558 | 53 | 185 | 0.0 | 0.9 | 0.00 | 0.00 | 0.00 | 54 | 1011.4 |
| 20260504140109 | 52 | 104 | 0.0 | 0.0 | 0.00 | 0.00 | 0.00 | 51 | 1011.4 |
| 20260504130557 | 52 | 104 | 0.9 | 1.7 | 0.00 | 0.00 | 0.00 | 46 | 1011.1 |
| 20260504120120 | 53 | 137 | 0.9 | 1.7 | 0.00 | 0.00 | 0.00 | 41 | 1011.2 |
| 20260504110559 | 54 | 0 | 0.0 | 1.7 | 0.00 | 0.00 | 0.00 | 40 | 1011.2 |
| 20260504110107 | 54 | 106 | 0.0 | 1.7 | 0.00 | 0.00 | 0.00 | 42 | 1011.2 |